This is the latest recevied weather packets stored in our database for station/object WX5HOT. If no packets are shown the sender has not sent any weather packets the latest 10 day(s).
| Time | Temp. | Humidity | Pressure | Rain* | Wind** | Luminosity | Snow |
|---|---|---|---|---|---|---|---|
| 1777913302 | 19.44° C | 55% | 1064.1 hPa | 0 mm | - | 854 W/m² | - |
| 1777912999 | 18.89° C | 55% | 1064.2 hPa | 0 mm | - | 904 W/m² | - |
| 1777912695 | 18.89° C | 55% | 1064 hPa | 0 mm | - | 870 W/m² | - |
| 1777912391 | 18.89° C | 58% | 1064.2 hPa | 0 mm | - | 883 W/m² | - |
| 1777912087 | 18.89° C | 57% | 1064.2 hPa | 0 mm | - | 104 W/m² | - |
| 1777911783 | 18.89° C | 57% | 1064.3 hPa | 0 mm | - | 848 W/m² | - |
| 1777911480 | 18.89° C | 59% | 1064.3 hPa | 0 mm | - | 768 W/m² | - |
| 1777911177 | 18.89° C | 58% | 1064.2 hPa | 0 mm | - | 588 W/m² | - |
| 1777910875 | 18.33° C | 59% | 1064.3 hPa | 0 mm | - | 427 W/m² | - |
| 1777910571 | 18.33° C | 59% | 1064.5 hPa | 0 mm | - | 617 W/m² | - |
| 1777910268 | 17.78° C | 60% | 1064.3 hPa | 0 mm | - | 292 W/m² | - |
| 1777909965 | 17.78° C | 59% | 1064.5 hPa | 0 mm | - | 565 W/m² | - |
| 1777909662 | 17.78° C | 60% | 1064.3 hPa | 0 mm | - | 406 W/m² | - |
| 1777909359 | 17.78° C | 59% | 1064.1 hPa | 0 mm | - | 373 W/m² | - |
| 1777909057 | 17.78° C | 61% | 1064.6 hPa | 0 mm | - | 521 W/m² | - |
| 1777908754 | 17.78° C | 61% | 1064.3 hPa | 0 mm | - | 648 W/m² | - |
| 1777908451 | 17.78° C | 63% | 1064.5 hPa | 0 mm | - | 741 W/m² | - |
| 1777908148 | 17.22° C | 64% | 1064.6 hPa | 0 mm | - | 726 W/m² | - |
| 1777907844 | 17.22° C | 62% | 1064.6 hPa | 0 mm | - | 493 W/m² | - |
| 1777907540 | 17.22° C | 64% | 1064.3 hPa | 0 mm | - | 697 W/m² | - |
| 1777907236 | 16.67° C | 64% | 1064.4 hPa | 0 mm | - | 680 W/m² | - |
| 1777906933 | 16.67° C | 63% | 1064.5 hPa | 0 mm | - | 666 W/m² | - |
| 1777906631 | 16.67° C | 64% | 1064.5 hPa | 0 mm | - | 649 W/m² | - |
| 1777906326 | 16.67° C | 64% | 1064.4 hPa | 0 mm | - | 634 W/m² | - |
| 1777906023 | 16.67° C | 64% | 1064.4 hPa | 0 mm | - | 619 W/m² | - |
* Rain latest hour (hover to see other rain measurements)
** Current wind speed in m/s (hover to see current wind gust speed)